ELECTRON KICK STAGE R/B, 58901

Orbit data source: Space-Track

ELECTRON KICK STAGE R/B, 58901 is space debris in SSO originally from a launch on Wed, 31 Jan 2024 UTC launched from the Rocket Lab Launch Complex (RLLC). Debris objects in space refer to the collection of defunct objects orbiting the Earth. Examples of debris include non-operational satellites, rocket bodies, and fragments generated from explosions, collisions, or faulty payload assembly.

Loading next visibility...
Identifier
58901, 2024-022C
Orbit
SSO
Last TLE update
11 hours ago
Origin
Manufacturer
Rocket Lab
Mission
Spacecraft
Bus & Motor
KICK STAGE, CURIE
Mass
~43 kg wet, ~43 kg dry
Launch date (UTC)
2024-01-31 (1 year ago)
Launch vehicle
Unknown
Launch site
Rocket Lab Launch Complex (RLLC)
Object type
Payload
Rocket body
Debris
Shape & HBR
Trunc Cone, 1.4 m
Radar Cross Section
0.760 m², Medium (>0.1 m² and < 1m²)

Expand to show TLE details & history

TLE from 11 hours ago
0 ELECTRON KICK STAGE R/B
1 58901U 24022C   25141.55694965  .00015683  00000-0  50442-3 0  9996
2 58901  97.4507 346.3125 0011601  67.8836 292.3636 15.32268906 72381
Epoch: 2025-05-21T13:22Z
TLE epoch observation values (Epoch: 2025-05-21T13:22:00.449Z)
Latitude
-0.00004°
Longitude
-93.62852°
Altitude
469.135 km
Speed
7.633 km/s
True Right ascension
23h 05m 15s
True Declination
0° 00' 00"
Sunlit
Object was in daylight at epoch
Visualization orbit readout
Latitude
-70.43644°
Longitude
-71.71384°
Altitude
501.179 km
Speed
7.609 km/s
Apparent Right ascension
22h 06m 02s
Apparent Declination
-58° 06' 44"
Sunlit
Object is in daylight
Visualization observer readout
Local Sidereal Time
09:00:32
Azimuth
204.551° SW
Elevation
-68.997°
Doppler factor
1
Orbital elements
Apogee altitude
473.936 km
Perigee altitude
458.056 km
Semi-major axis
6,844.133 km
Eccentricity
0.00116
Inclination
97.4507°
RAAN
346.3125°
Arg. of periapsis
67.8836°
True anomaly
Unknown
Mean anomaly
292.3636°
Eccentric anomaly
Unknown
Mean motion
3.83324 °/min
Orbital period
93.92 mins
BSTAR
0.00050442
Loading maneuver chart data...
Loading SW <> Apogee altitude chart data...
Loading historical data...
Loading historical data...
Loading historical data...
Loading historical data...
Loading historical data...
Loading historical data...
Loading historical data...

ELECTRON KICK STAGE R/B Visibility forecast

Observer location: undefined°, undefined°

Span
Click to sort rows by Start time (UTC) header in descending order
Start Az.
Max El. time (UTC)
Max El. Az.
Max El.
End time (UTC)
End Az.
6 mins2025-05-22 02:27:30.450Z13.609° NNE2025-05-22 02:30:30.450Z39.673° NE44.159°2025-05-22 02:33:30.450Z190.229° SSW
|